| time (UTC) | temp F | wind direction | speed MPH | gust MPH | rain 1hr in | rain 24hr in | rain mn in | humidity % | barometer mb |
| 20260905095806 | 76 | 140 | 2.0 | 6.0 | 0.00 | 0.00 | 0.00 | 65 | 1015.9 |
| 20260905095306 | 76 | 157 | 2.0 | 6.0 | 0.00 | 0.00 | 0.00 | 65 | 1015.9 |
| 20260905095012 | 76 | 173 | 1.0 | 5.0 | 0.00 | 0.00 | 0.00 | 65 | 1015.9 |
| 20260905094923 | 76 | 159 | 2.0 | 6.0 | 0.00 | 0.00 | 0.00 | 65 | 1015.9 |
| 20260905093808 | 76 | 158 | 1.0 | 4.0 | 0.00 | 0.00 | 0.00 | 64 | 1015.8 |
| 20260905093306 | 77 | 103 | 2.0 | 6.0 | 0.00 | 0.00 | 0.00 | 64 | 1016.1 |
| 20260905093136 | 77 | 152 | 2.0 | 6.0 | 0.00 | 0.00 | 0.00 | 63 | 1016.1 |
| 20260905092631 | 77 | 147 | 2.0 | 7.0 | 0.00 | 0.00 | 0.00 | 63 | 1016.1 |
| 20260905092131 | 77 | 168 | 3.0 | 7.0 | 0.00 | 0.00 | 0.00 | 62 | 1016.2 |
| 20260905091306 | 78 | 134 | 3.0 | 6.0 | 0.00 | 0.00 | 0.00 | 62 | 1016.2 |
| 20260905090807 | 78 | 96 | 3.0 | 7.0 | 0.00 | 0.00 | 0.00 | 62 | 1016.1 |
| 20260905090306 | 78 | 185 | 3.0 | 7.0 | 0.00 | 0.00 | 0.00 | 62 | 1016.2 |
| 20260905085806 | 78 | 165 | 3.0 | 9.0 | 0.00 | 0.00 | 0.00 | 62 | 1016.2 |
| 20260905085306 | 78 | 196 | 2.0 | 10.0 | 0.00 | 0.00 | 0.00 | 61 | 1016.2 |
| 20260905084807 | 78 | 180 | 4.0 | 10.0 | 0.00 | 0.00 | 0.00 | 61 | 1016.2 |
| 20260905084307 | 78 | 125 | 3.0 | 7.0 | 0.00 | 0.00 | 0.00 | 61 | 1016.2 |
| 20260905084013 | 78 | 145 | 3.0 | 7.0 | 0.00 | 0.00 | 0.00 | 61 | 1016.2 |
| 20260905083917 | 78 | 199 | 3.0 | 7.0 | 0.00 | 0.00 | 0.00 | 61 | 1016.3 |
| 20260905083138 | 78 | 183 | 3.0 | 7.0 | 0.00 | 0.00 | 0.00 | 61 | 1016.2 |
| 20260905082307 | 78 | 189 | 2.0 | 9.0 | 0.00 | 0.00 | 0.00 | 61 | 1016.2 |
| 20260905081806 | 78 | 144 | 4.0 | 9.0 | 0.00 | 0.00 | 0.00 | 60 | 1016.2 |
| 20260905081307 | 78 | 180 | 5.0 | 7.0 | 0.00 | 0.00 | 0.00 | 60 | 1016.2 |
| 20260905081143 | 78 | 134 | 3.0 | 6.0 | 0.00 | 0.00 | 0.00 | 60 | 1016.2 |
| 20260905080307 | 78 | 169 | 3.0 | 7.0 | 0.00 | 0.00 | 0.00 | 60 | 1016.1 |
| 20260905075807 | 79 | 186 | 3.0 | 12.0 | 0.00 | 0.00 | 0.00 | 60 | 1016.1 |
| 20260905075306 | 79 | 173 | 4.0 | 12.0 | 0.00 | 0.00 | 0.00 | 59 | 1016.2 |
| 20260905075138 | 79 | 149 | 5.0 | 10.0 | 0.00 | 0.00 | 0.00 | 59 | 1016.2 |
| 20260905074307 | 79 | 197 | 4.0 | 7.0 | 0.00 | 0.00 | 0.00 | 59 | 1016.2 |
| 20260905073805 | 79 | 172 | 5.0 | 10.0 | 0.00 | 0.00 | 0.00 | 59 | 1016.2 |
| 20260905073312 | 79 | 175 | 5.0 | 10.0 | 0.00 | 0.00 | 0.00 | 59 | 1016.2 |
| 20260905072806 | 79 | 188 | 4.0 | 10.0 | 0.00 | 0.00 | 0.00 | 59 | 1016.3 |
| 20260905072307 | 79 | 193 | 4.0 | 9.0 | 0.00 | 0.00 | 0.00 | 59 | 1016.3 |
| 20260905071809 | 79 | 214 | 4.0 | 10.0 | 0.00 | 0.00 | 0.00 | 59 | 1016.2 |
| 20260905071307 | 79 | 107 | 6.0 | 12.0 | 0.00 | 0.00 | 0.00 | 59 | 1016.3 |
| 20260905070806 | 79 | 165 | 5.0 | 12.0 | 0.00 | 0.00 | 0.00 | 59 | 1016.3 |
| 20260905070306 | 80 | 171 | 5.0 | 11.0 | 0.00 | 0.00 | 0.00 | 58 | 1016.3 |
| 20260905065806 | 80 | 213 | 6.0 | 11.0 | 0.00 | 0.00 | 0.00 | 58 | 1016.3 |
| 20260905065307 | 80 | 240 | 5.0 | 12.0 | 0.00 | 0.00 | 0.00 | 58 | 1016.3 |
| 20260905064806 | 80 | 214 | 8.0 | 12.0 | 0.00 | 0.00 | 0.00 | 58 | 1016.3 |
| 20260905064629 | 80 | 204 | 4.0 | 12.0 | 0.00 | 0.00 | 0.00 | 58 | 1016.2 |
| 20260905063806 | 80 | 162 | 5.0 | 12.0 | 0.00 | 0.00 | 0.00 | 58 | 1016.3 |
| 20260905063634 | 80 | 178 | 6.0 | 12.0 | 0.00 | 0.00 | 0.00 | 57 | 1016.4 |
| 20260905062808 | 80 | 228 | 5.0 | 12.0 | 0.00 | 0.00 | 0.00 | 57 | 1016.3 |
| 20260905062309 | 80 | 147 | 5.0 | 10.0 | 0.00 | 0.00 | 0.00 | 57 | 1016.3 |
| 20260905061807 | 81 | 203 | 4.0 | 10.0 | 0.00 | 0.00 | 0.00 | 57 | 1016.3 |
| 20260905061306 | 81 | 169 | 5.0 | 12.0 | 0.00 | 0.00 | 0.00 | 57 | 1016.3 |
| 20260905060808 | 81 | 171 | 5.0 | 13.0 | 0.00 | 0.00 | 0.00 | 56 | 1016.3 |
| 20260905060307 | 81 | 193 | 6.0 | 13.0 | 0.00 | 0.00 | 0.00 | 56 | 1016.2 |
| 20260905060006 | 81 | 79 | 4.0 | 13.0 | 0.00 | 0.00 | 0.00 | 56 | 1016.2 |
| 20260905055918 | 81 | 189 | 3.0 | 13.0 | 0.00 | 0.00 | 0.00 | 56 | 1016.2 |
| 20260905054807 | 81 | 137 | 7.0 | 13.0 | 0.00 | 0.00 | 0.00 | 56 | 1016.2 |
| 20260905054305 | 81 | 183 | 5.0 | 10.0 | 0.00 | 0.00 | 0.00 | 56 | 1016.2 |
| 20260905053806 | 81 | 145 | 5.0 | 11.0 | 0.00 | 0.00 | 0.00 | 56 | 1016.2 |
| 20260905053307 | 81 | 134 | 4.0 | 11.0 | 0.00 | 0.00 | 0.00 | 55 | 1016.1 |
| 20260905052807 | 81 | 140 | 5.0 | 11.0 | 0.00 | 0.00 | 0.00 | 55 | 1015.9 |
| 20260905052306 | 82 | 162 | 5.0 | 11.0 | 0.00 | 0.00 | 0.00 | 55 | 1015.9 |
| 20260905051806 | 82 | 155 | 4.0 | 12.0 | 0.00 | 0.00 | 0.00 | 54 | 1015.9 |
| 20260905051307 | 82 | 173 | 4.0 | 12.0 | 0.00 | 0.00 | 0.00 | 54 | 1016.2 |
| 20260905051144 | 82 | 190 | 4.0 | 9.0 | 0.00 | 0.00 | 0.00 | 54 | 1016.2 |
| 20260905051010 | 82 | 221 | 3.0 | 11.0 | 0.00 | 0.00 | 0.00 | 53 | 1016.3 |
| 20260905045806 | 82 | 193 | 4.0 | 12.0 | 0.00 | 0.00 | 0.00 | 53 | 1016.4 |
| 20260905045307 | 82 | 175 | 7.0 | 12.0 | 0.00 | 0.00 | 0.00 | 53 | 1016.4 |
| 20260905044806 | 83 | 178 | 7.0 | 12.0 | 0.00 | 0.00 | 0.00 | 52 | 1016.6 |
| 20260905044306 | 83 | 196 | 3.0 | 9.0 | 0.00 | 0.00 | 0.00 | 51 | 1016.4 |
| 20260905043806 | 83 | 185 | 4.0 | 9.0 | 0.00 | 0.00 | 0.00 | 51 | 1016.3 |
| 20260905043306 | 83 | 207 | 3.0 | 9.0 | 0.00 | 0.00 | 0.00 | 50 | 1016.4 |
| 20260905043143 | 83 | 173 | 2.0 | 10.0 | 0.00 | 0.00 | 0.00 | 50 | 1016.4 |
| 20260905042307 | 83 | 161 | 3.0 | 11.0 | 0.00 | 0.00 | 0.00 | 49 | 1016.4 |
| 20260905041807 | 84 | 188 | 4.0 | 11.0 | 0.00 | 0.00 | 0.00 | 48 | 1016.4 |
| 20260905041307 | 84 | 133 | 4.0 | 10.0 | 0.00 | 0.00 | 0.00 | 47 | 1016.4 |
| 20260905041131 | 84 | 183 | 3.0 | 10.0 | 0.00 | 0.00 | 0.00 | 47 | 1016.2 |
| 20260905040519 | 85 | 171 | 5.0 | 9.0 | 0.00 | 0.00 | 0.00 | 45 | 1016.2 |
| 20260905040423 | 85 | 199 | 5.0 | 9.0 | 0.00 | 0.00 | 0.00 | 45 | 1016.2 |
| 20260905035308 | 85 | 224 | 4.0 | 9.0 | 0.00 | 0.00 | 0.00 | 44 | 1016.3 |
| 20260905034806 | 86 | 220 | 3.0 | 9.0 | 0.00 | 0.00 | 0.00 | 43 | 1016.2 |
| 20260905034306 | 86 | 137 | 3.0 | 9.0 | 0.00 | 0.00 | 0.00 | 42 | 1016.1 |
| 20260905033806 | 87 | 94 | 3.0 | 12.0 | 0.00 | 0.00 | 0.00 | 41 | 1015.9 |
| 20260905033307 | 87 | 173 | 3.0 | 12.0 | 0.00 | 0.00 | 0.00 | 41 | 1015.9 |
| 20260905032806 | 87 | 124 | 5.0 | 10.0 | 0.00 | 0.00 | 0.00 | 40 | 1015.8 |
| 20260905032306 | 87 | 125 | 4.0 | 6.0 | 0.00 | 0.00 | 0.00 | 39 | 1015.7 |
| 20260905031808 | 88 | 102 | 0.0 | 7.0 | 0.00 | 0.00 | 0.00 | 39 | 1015.7 |
| 20260905031306 | 89 | 152 | 4.0 | 7.0 | 0.00 | 0.00 | 0.00 | 38 | 1015.7 |
| 20260905030806 | 89 | 104 | 3.0 | 5.0 | 0.00 | 0.00 | 0.00 | 37 | 1015.5 |
| 20260905030308 | 89 | 113 | 2.0 | 5.0 | 0.00 | 0.00 | 0.00 | 37 | 1015.4 |
| 20260905025809 | 89 | 133 | 3.0 | 5.0 | 0.00 | 0.00 | 0.00 | 37 | 1015.3 |
| 20260905025633 | 90 | 141 | 2.0 | 5.0 | 0.00 | 0.00 | 0.00 | 36 | 1015.2 |
| 20260905025137 | 90 | 79 | 2.0 | 7.0 | 0.00 | 0.00 | 0.00 | 36 | 1015.1 |
| 20260905024306 | 90 | 216 | 3.0 | 7.0 | 0.00 | 0.00 | 0.00 | 35 | 1015.1 |
| 20260905023805 | 90 | 116 | 3.0 | 7.0 | 0.00 | 0.00 | 0.00 | 36 | 1014.9 |
| 20260905023305 | 90 | 189 | 1.0 | 6.0 | 0.00 | 0.00 | 0.00 | 35 | 1014.9 |
| 20260905022805 | 90 | 190 | 2.0 | 7.0 | 0.00 | 0.00 | 0.00 | 36 | 1014.8 |
| 20260905022306 | 89 | 319 | 4.0 | 7.0 | 0.00 | 0.00 | 0.00 | 37 | 1014.7 |
| 20260905021810 | 89 | 255 | 1.0 | 7.0 | 0.00 | 0.00 | 0.00 | 38 | 1014.8 |
| 20260905021306 | 89 | 0 | 0.0 | 7.0 | 0.00 | 0.00 | 0.00 | 38 | 1014.5 |
| 20260905020805 | 89 | 272 | 2.0 | 6.0 | 0.00 | 0.00 | 0.00 | 38 | 1014.5 |
| 20260905020310 | 88 | 283 | 3.0 | 5.0 | 0.00 | 0.00 | 0.00 | 40 | 1014.5 |
| 20260905020146 | 89 | 243 | 2.0 | 6.0 | 0.00 | 0.00 | 0.00 | 39 | 1014.4 |
| 20260905015309 | 89 | 199 | 2.0 | 9.0 | 0.00 | 0.00 | 0.00 | 38 | 1014.2 |
| 20260905015134 | 89 | 100 | 3.0 | 12.0 | 0.00 | 0.00 | 0.00 | 38 | 1014.0 |
| 20260905014306 | 89 | 103 | 4.0 | 12.0 | 0.00 | 0.00 | 0.00 | 38 | 1014.0 |
| 20260905013805 | 89 | 99 | 6.0 | 12.0 | 0.00 | 0.00 | 0.00 | 38 | 1013.9 |
| 20260905013309 | 90 | 76 | 5.0 | 11.0 | 0.00 | 0.00 | 0.00 | 38 | 1013.8 |
| 20260905012805 | 90 | 111 | 4.0 | 11.0 | 0.00 | 0.00 | 0.00 | 38 | 1013.8 |
| 20260905012306 | 90 | 114 | 5.0 | 11.0 | 0.00 | 0.00 | 0.00 | 38 | 1013.8 |
| 20260905011806 | 90 | 111 | 6.0 | 13.0 | 0.00 | 0.00 | 0.00 | 38 | 1013.8 |
| 20260905011307 | 90 | 120 | 6.0 | 13.0 | 0.00 | 0.00 | 0.00 | 38 | 1013.7 |
| 20260905011027 | 90 | 128 | 5.0 | 13.0 | 0.00 | 0.00 | 0.00 | 38 | 1013.7 |
| 20260905010808 | 90 | 128 | 5.0 | 13.0 | 0.00 | 0.00 | 0.00 | 38 | 1013.7 |
| 20260905010308 | 91 | 157 | 7.0 | 15.0 | 0.00 | 0.00 | 0.00 | 38 | 1013.6 |
| 20260905005806 | 91 | 110 | 5.0 | 15.0 | 0.00 | 0.00 | 0.00 | 38 | 1013.6 |
| 20260905005307 | 91 | 92 | 7.0 | 12.0 | 0.00 | 0.00 | 0.00 | 38 | 1013.7 |
| 20260905004806 | 91 | 61 | 6.0 | 12.0 | 0.00 | 0.00 | 0.00 | 38 | 1013.6 |
| 20260905004306 | 91 | 76 | 6.0 | 12.0 | 0.00 | 0.00 | 0.00 | 38 | 1013.5 |
| 20260905003806 | 92 | 102 | 7.0 | 12.0 | 0.00 | 0.00 | 0.00 | 37 | 1013.5 |
| 20260905003306 | 92 | 107 | 5.0 | 12.0 | 0.00 | 0.00 | 0.00 | 36 | 1013.4 |
| 20260905002806 | 92 | 113 | 7.0 | 12.0 | 0.00 | 0.00 | 0.00 | 36 | 1013.5 |
| 20260905002306 | 93 | 113 | 4.0 | 12.0 | 0.00 | 0.00 | 0.00 | 35 | 1013.4 |
| 20260905001806 | 93 | 79 | 5.0 | 12.0 | 0.00 | 0.00 | 0.00 | 35 | 1013.4 |
| 20260905001309 | 93 | 144 | 6.0 | 13.0 | 0.00 | 0.00 | 0.00 | 34 | 1013.4 |
| 20260905000806 | 94 | 100 | 8.0 | 15.0 | 0.00 | 0.00 | 0.00 | 33 | 1013.3 |
| 20260905000307 | 94 | 107 | 7.0 | 16.0 | 0.00 | 0.00 | 0.00 | 33 | 1013.3 |
| 20260904235806 | 94 | 103 | 9.0 | 16.0 | 0.00 | 0.00 | 0.00 | 31 | 1013.3 |
| 20260904235306 | 95 | 89 | 6.0 | 15.0 | 0.00 | 0.00 | 0.00 | 30 | 1013.3 |
| 20260904234806 | 96 | 117 | 8.0 | 14.0 | 0.00 | 0.00 | 0.00 | 28 | 1013.2 |
| 20260904234304 | 97 | 128 | 6.0 | 14.0 | 0.00 | 0.00 | 0.00 | 27 | 1013.0 |
| 20260904233806 | 97 | 110 | 5.0 | 13.0 | 0.00 | 0.00 | 0.00 | 27 | 1012.9 |
| 20260904233312 | 97 | 219 | 6.0 | 12.0 | 0.00 | 0.00 | 0.00 | 27 | 1013.0 |
| 20260904232806 | 97 | 123 | 5.0 | 17.0 | 0.00 | 0.00 | 0.00 | 27 | 1012.8 |
| 20260904232307 | 97 | 116 | 10.0 | 17.0 | 0.00 | 0.00 | 0.00 | 27 | 1012.8 |
| 20260904231806 | 98 | 110 | 5.0 | 15.0 | 0.00 | 0.00 | 0.00 | 27 | 1012.8 |
| 20260904231306 | 98 | 113 | 6.0 | 15.0 | 0.00 | 0.00 | 0.00 | 27 | 1012.8 |
| 20260904231113 | 98 | 103 | 5.0 | 12.0 | 0.00 | 0.00 | 0.00 | 27 | 1012.7 |
| 20260904230644 | 98 | 93 | 4.0 | 13.0 | 0.00 | 0.00 | 0.00 | 27 | 1012.7 |
| 20260904225809 | 98 | 90 | 7.0 | 13.0 | 0.00 | 0.00 | 0.00 | 27 | 1012.8 |
| 20260904225306 | 98 | 106 | 6.0 | 12.0 | 0.00 | 0.00 | 0.00 | 26 | 1012.8 |
| 20260904225149 | 98 | 158 | 5.0 | 13.0 | 0.00 | 0.00 | 0.00 | 27 | 1012.8 |
| 20260904224305 | 98 | 190 | 6.0 | 16.0 | 0.00 | 0.00 | 0.00 | 27 | 1012.9 |
| 20260904223805 | 98 | 103 | 8.0 | 16.0 | 0.00 | 0.00 | 0.00 | 26 | 1012.9 |
| 20260904223305 | 98 | 133 | 6.0 | 15.0 | 0.00 | 0.00 | 0.00 | 27 | 1012.9 |
| 20260904223118 | 98 | 154 | 5.0 | 13.0 | 0.00 | 0.00 | 0.00 | 27 | 1012.9 |
| 20260904222647 | 98 | 117 | 6.0 | 13.0 | 0.00 | 0.00 | 0.00 | 27 | 1013.2 |
| 20260904222150 | 98 | 123 | 6.0 | 16.0 | 0.00 | 0.00 | 0.00 | 27 | 1013.2 |
| 20260904221649 | 98 | 127 | 6.0 | 16.0 | 0.00 | 0.00 | 0.00 | 28 | 1013.2 |
| 20260904220804 | 98 | 124 | 8.0 | 15.0 | 0.00 | 0.00 | 0.00 | 27 | 1013.2 |
| 20260904220308 | 99 | 133 | 6.0 | 16.0 | 0.00 | 0.00 | 0.00 | 27 | 1013.2 |
| 20260904215806 | 99 | 131 | 7.0 | 16.0 | 0.00 | 0.00 | 0.00 | 28 | 1013.2 |
| 20260904215649 | 99 | 164 | 8.0 | 15.0 | 0.00 | 0.00 | 0.00 | 28 | 1013.2 |
| 20260904214805 | 99 | 182 | 7.0 | 18.0 | 0.00 | 0.00 | 0.00 | 28 | 1013.2 |
| 20260904214646 | 99 | 173 | 9.0 | 18.0 | 0.00 | 0.00 | 0.00 | 28 | 1013.2 |
| 20260904213806 | 99 | 188 | 8.0 | 17.0 | 0.00 | 0.00 | 0.00 | 28 | 1013.3 |
| 20260904213540 | 100 | 73 | 6.0 | 17.0 | 0.00 | 0.00 | 0.00 | 28 | 1013.2 |
| 20260904212805 | 100 | 145 | 7.0 | 17.0 | 0.00 | 0.00 | 0.00 | 27 | 1013.2 |
| 20260904212307 | 101 | 103 | 7.0 | 15.0 | 0.00 | 0.00 | 0.00 | 27 | 1013.3 |
| 20260904212135 | 100 | 111 | 7.0 | 15.0 | 0.00 | 0.00 | 0.00 | 28 | 1013.2 |
| 20260904211640 | 99 | 79 | 6.0 | 15.0 | 0.00 | 0.00 | 0.00 | 27 | 1013.4 |
| 20260904210805 | 100 | 176 | 9.0 | 13.0 | 0.00 | 0.00 | 0.00 | 26 | 1013.4 |
| 20260904210305 | 101 | 179 | 5.0 | 12.0 | 0.00 | 0.00 | 0.00 | 26 | 1013.4 |
| 20260904205806 | 101 | 155 | 5.0 | 12.0 | 0.00 | 0.00 | 0.00 | 26 | 1013.4 |
| 20260904205309 | 101 | 149 | 6.0 | 14.0 | 0.00 | 0.00 | 0.00 | 27 | 1013.5 |
| 20260904205054 | 101 | 117 | 6.0 | 14.0 | 0.00 | 0.00 | 0.00 | 26 | 1013.5 |
| 20260904204407 | 100 | 234 | 4.0 | 12.0 | 0.00 | 0.00 | 0.00 | 27 | 1013.5 |
| 20260904203305 | 100 | 234 | 6.0 | 13.0 | 0.00 | 0.00 | 0.00 | 27 | 1013.6 |
| 20260904203117 | 100 | 175 | 7.0 | 11.0 | 0.00 | 0.00 | 0.00 | 28 | 1013.8 |
| 20260904202307 | 98 | 121 | 5.0 | 9.0 | 0.00 | 0.00 | 0.00 | 30 | 1013.8 |
| 20260904201806 | 100 | 137 | 4.0 | 7.0 | 0.00 | 0.00 | 0.00 | 27 | 1013.9 |
| 20260904201305 | 101 | 117 | 3.0 | 9.0 | 0.00 | 0.00 | 0.00 | 28 | 1014.0 |
| 20260904200806 | 100 | 142 | 5.0 | 15.0 | 0.00 | 0.00 | 0.00 | 27 | 1014.0 |
| 20260904200305 | 101 | 127 | 5.0 | 15.0 | 0.00 | 0.00 | 0.00 | 28 | 1014.2 |
| 20260904195805 | 100 | 180 | 5.0 | 12.0 | 0.00 | 0.00 | 0.00 | 29 | 1014.0 |
| 20260904195306 | 99 | 142 | 3.0 | 11.0 | 0.00 | 0.00 | 0.00 | 30 | 1014.4 |
| 20260904194807 | 98 | 244 | 6.0 | 11.0 | 0.00 | 0.00 | 0.00 | 30 | 1014.4 |
| 20260904194305 | 99 | 245 | 4.0 | 7.0 | 0.00 | 0.00 | 0.00 | 29 | 1014.4 |
| 20260904194036 | 100 | 244 | 2.0 | 6.0 | 0.00 | 0.00 | 0.00 | 29 | 1014.6 |
| 20260904193934 | 100 | 138 | 3.0 | 7.0 | 0.00 | 0.00 | 0.00 | 28 | 1014.4 |
| 20260904192805 | 99 | 114 | 3.0 | 13.0 | 0.00 | 0.00 | 0.00 | 28 | 1014.5 |
| 20260904192542 | 100 | 219 | 4.0 | 10.0 | 0.00 | 0.00 | 0.00 | 28 | 1014.6 |
| 20260904192432 | 100 | 188 | 4.0 | 13.0 | 0.00 | 0.00 | 0.00 | 28 | 1014.6 |
| 20260904191307 | 99 | 171 | 6.0 | 10.0 | 0.00 | 0.00 | 0.00 | 29 | 1014.7 |
| 20260904191211 | 99 | 97 | 4.0 | 10.0 | 0.00 | 0.00 | 0.00 | 29 | 1014.7 |
| 20260904190304 | 100 | 172 | 4.0 | 11.0 | 0.00 | 0.00 | 0.00 | 31 | 1014.9 |
| 20260904185807 | 99 | 131 | 5.0 | 11.0 | 0.00 | 0.00 | 0.00 | 29 | 1014.9 |
| 20260904185310 | 99 | 272 | 2.0 | 6.0 | 0.00 | 0.00 | 0.00 | 30 | 1014.9 |
| 20260904184806 | 98 | 250 | 2.0 | 6.0 | 0.00 | 0.00 | 0.00 | 29 | 1015.1 |
| 20260904184306 | 98 | 175 | 3.0 | 7.0 | 0.00 | 0.00 | 0.00 | 31 | 1015.1 |
| 20260904183806 | 98 | 188 | 4.0 | 10.0 | 0.00 | 0.00 | 0.00 | 30 | 1015.3 |
| 20260904183305 | 99 | 186 | 3.0 | 10.0 | 0.00 | 0.00 | 0.00 | 31 | 1015.3 |
| 20260904182806 | 98 | 221 | 2.0 | 6.0 | 0.00 | 0.00 | 0.00 | 30 | 1015.4 |
| 20260904182306 | 99 | 220 | 3.0 | 9.0 | 0.00 | 0.00 | 0.00 | 31 | 1015.4 |
| 20260904181805 | 98 | 254 | 5.0 | 9.0 | 0.00 | 0.00 | 0.00 | 30 | 1015.4 |
| 20260904181306 | 98 | 185 | 3.0 | 10.0 | 0.00 | 0.00 | 0.00 | 31 | 1015.4 |
| 20260904181152 | 97 | 243 | 2.0 | 10.0 | 0.00 | 0.00 | 0.00 | 32 | 1015.5 |
| 20260904180306 | 98 | 219 | 3.0 | 7.0 | 0.00 | 0.00 | 0.00 | 33 | 1015.6 |
| 20260904175805 | 98 | 259 | 3.0 | 6.0 | 0.00 | 0.00 | 0.00 | 32 | 1015.5 |
| 20260904175311 | 98 | 238 | 4.0 | 6.0 | 0.00 | 0.00 | 0.00 | 33 | 1015.6 |
| 20260904174807 | 97 | 279 | 2.0 | 9.0 | 0.00 | 0.00 | 0.00 | 31 | 1015.8 |
| 20260904174305 | 97 | 193 | 3.0 | 9.0 | 0.00 | 0.00 | 0.00 | 33 | 1015.7 |
| 20260904173810 | 96 | 276 | 3.0 | 12.0 | 0.00 | 0.00 | 0.00 | 32 | 1015.8 |
| 20260904173306 | 96 | 247 | 7.0 | 12.0 | 0.00 | 0.00 | 0.00 | 33 | 1015.9 |
| 20260904172806 | 96 | 207 | 3.0 | 10.0 | 0.00 | 0.00 | 0.00 | 32 | 1015.9 |
| 20260904172306 | 96 | 240 | 4.0 | 9.0 | 0.00 | 0.00 | 0.00 | 36 | 1016.1 |
| 20260904172014 | 95 | 233 | 2.0 | 10.0 | 0.00 | 0.00 | 0.00 | 35 | 1015.9 |
| 20260904171925 | 96 | 193 | 2.0 | 7.0 | 0.00 | 0.00 | 0.00 | 34 | 1015.9 |
| 20260904171143 | 95 | 210 | 5.0 | 11.0 | 0.00 | 0.00 | 0.00 | 34 | 1016.1 |
| 20260904170537 | 95 | 241 | 4.0 | 9.0 | 0.00 | 0.00 | 0.00 | 35 | 1015.9 |
| 20260904170431 | 94 | 240 | 6.0 | 11.0 | 0.00 | 0.00 | 0.00 | 35 | 1016.1 |
| 20260904165306 | 95 | 231 | 2.0 | 9.0 | 0.00 | 0.00 | 0.00 | 37 | 1015.9 |
| 20260904164810 | 94 | 147 | 4.0 | 9.0 | 0.00 | 0.00 | 0.00 | 36 | 1015.9 |
| 20260904164639 | 94 | 259 | 5.0 | 10.0 | 0.00 | 0.00 | 0.00 | 39 | 1016.1 |
| 20260904163805 | 94 | 166 | 5.0 | 10.0 | 0.00 | 0.00 | 0.00 | 37 | 1015.9 |
| 20260904163646 | 93 | 197 | 3.0 | 6.0 | 0.00 | 0.00 | 0.00 | 38 | 1016.1 |
| 20260904162805 | 92 | 231 | 4.0 | 6.0 | 0.00 | 0.00 | 0.00 | 41 | 1015.9 |
| 20260904162307 | 92 | 257 | 2.0 | 7.0 | 0.00 | 0.00 | 0.00 | 39 | 1016.1 |
| 20260904161804 | 92 | 250 | 5.0 | 7.0 | 0.00 | 0.00 | 0.00 | 43 | 1016.1 |
| 20260904161305 | 91 | 244 | 4.0 | 7.0 | 0.00 | 0.00 | 0.00 | 44 | 1016.1 |
| 20260904160805 | 91 | 202 | 5.0 | 7.0 | 0.00 | 0.00 | 0.00 | 41 | 1015.9 |
| 20260904160656 | 90 | 248 | 1.0 | 5.0 | 0.00 | 0.00 | 0.00 | 43 | 1015.9 |
| 20260904155805 | 90 | 189 | 2.0 | 7.0 | 0.00 | 0.00 | 0.00 | 43 | 1015.8 |
| 20260904155307 | 89 | 209 | 3.0 | 7.0 | 0.00 | 0.00 | 0.00 | 44 | 1015.8 |
| 20260904154805 | 88 | 0 | 5.0 | 6.0 | 0.00 | 0.00 | 0.00 | 46 | 1015.8 |
| 20260904154308 | 88 | 0 | 3.0 | 6.0 | 0.00 | 0.00 | 0.00 | 46 | 1015.8 |
| 20260904153806 | 88 | 0 | 2.0 | 6.0 | 0.00 | 0.00 | 0.00 | 45 | 1015.7 |
| 20260904153305 | 87 | 0 | 2.0 | 7.0 | 0.00 | 0.00 | 0.00 | 48 | 1015.7 |
| 20260904152806 | 86 | 254 | 4.0 | 7.0 | 0.00 | 0.00 | 0.00 | 48 | 1015.7 |
| 20260904152616 | 86 | 0 | 1.0 | 7.0 | 0.00 | 0.00 | 0.00 | 48 | 1015.7 |
| 20260904151805 | 85 | 0 | 3.0 | 5.0 | 0.00 | 0.00 | 0.00 | 49 | 1015.8 |
| 20260904151305 | 84 | 0 | 0.0 | 5.0 | 0.00 | 0.00 | 0.00 | 52 | 1015.8 |
| 20260904151216 | 83 | 244 | 1.0 | 5.0 | 0.00 | 0.00 | 0.00 | 53 | 1015.7 |
| 20260904150307 | 82 | 231 | 0.0 | 4.0 | 0.00 | 0.00 | 0.00 | 54 | 1015.8 |
| 20260904145805 | 82 | 149 | 0.0 | 9.0 | 0.00 | 0.00 | 0.00 | 54 | 1015.7 |
| 20260904145306 | 81 | 172 | 3.0 | 9.0 | 0.00 | 0.00 | 0.00 | 56 | 1015.7 |
| 20260904144804 | 80 | 173 | 2.0 | 7.0 | 0.00 | 0.00 | 0.00 | 55 | 1015.8 |
| 20260904144304 | 80 | 128 | 3.0 | 6.0 | 0.00 | 0.00 | 0.00 | 57 | 1015.7 |
| 20260904143807 | 80 | 131 | 3.0 | 5.0 | 0.00 | 0.00 | 0.00 | 57 | 1015.8 |
| 20260904143643 | 79 | 164 | 3.0 | 5.0 | 0.00 | 0.00 | 0.00 | 58 | 1015.7 |
| 20260904143156 | 79 | 103 | 3.0 | 5.0 | 0.00 | 0.00 | 0.00 | 59 | 1015.7 |
| 20260904142307 | 78 | 157 | 3.0 | 5.0 | 0.00 | 0.00 | 0.00 | 61 | 1015.8 |
| 20260904141804 | 77 | 94 | 2.0 | 4.0 | 0.00 | 0.00 | 0.00 | 62 | 1015.6 |
| 20260904141304 | 76 | 151 | 2.0 | 3.0 | 0.00 | 0.00 | 0.00 | 63 | 1015.6 |
| 20260904141154 | 76 | 145 | 1.0 | 4.0 | 0.00 | 0.00 | 0.00 | 64 | 1015.7 |
| 20260904140305 | 76 | 102 | 1.0 | 4.0 | 0.00 | 0.00 | 0.00 | 65 | 1015.7 |
| 20260904135807 | 75 | 102 | 3.0 | 4.0 | 0.00 | 0.00 | 0.00 | 66 | 1015.7 |
| 20260904135306 | 74 | 97 | 0.0 | 5.0 | 0.00 | 0.00 | 0.00 | 68 | 1015.8 |
| 20260904134805 | 74 | 102 | 3.0 | 5.0 | 0.00 | 0.00 | 0.00 | 69 | 1015.7 |
| 20260904134304 | 73 | 124 | 2.0 | 5.0 | 0.00 | 0.00 | 0.00 | 70 | 1015.8 |
| 20260904133804 | 72 | 157 | 2.0 | 3.0 | 0.00 | 0.00 | 0.00 | 71 | 1015.7 |
| 20260904133305 | 72 | 127 | 0.0 | 5.0 | 0.00 | 0.00 | 0.00 | 72 | 1015.7 |
| 20260904132806 | 71 | 97 | 3.0 | 5.0 | 0.00 | 0.00 | 0.00 | 72 | 1015.6 |
| 20260904132307 | 71 | 104 | 2.0 | 4.0 | 0.00 | 0.00 | 0.00 | 73 | 1015.6 |
| 20260904132037 | 71 | 148 | 2.0 | 4.0 | 0.00 | 0.00 | 0.00 | 73 | 1015.6 |
| 20260904131807 | 71 | 148 | 2.0 | 4.0 | 0.00 | 0.00 | 0.00 | 73 | 1015.6 |
| 20260904131306 | 71 | 120 | 3.0 | 4.0 | 0.00 | 0.00 | 0.00 | 73 | 1015.5 |
| 20260904131025 | 71 | 99 | 0.0 | 0.0 | 0.00 | 0.00 | 0.00 | 73 | 1015.4 |
| 20260904130809 | 71 | 99 | 0.0 | 0.0 | 0.00 | 0.00 | 0.00 | 73 | 1015.4 |
| 20260904130305 | 70 | 151 | 0.0 | 1.0 | 0.00 | 0.00 | 0.00 | 73 | 1015.4 |
| 20260904125804 | 70 | 161 | 0.0 | 3.0 | 0.00 | 0.00 | 0.00 | 73 | 1015.3 |
| 20260904125305 | 71 | 176 | 1.0 | 4.0 | 0.00 | 0.00 | 0.00 | 72 | 1015.3 |
| 20260904124804 | 71 | 171 | 2.0 | 4.0 | 0.00 | 0.00 | 0.00 | 72 | 1015.3 |
| 20260904124334 | 71 | 173 | 2.0 | 6.0 | 0.00 | 0.00 | 0.00 | 71 | 1015.3 |
| 20260904123926 | 71 | 144 | 0.0 | 6.0 | 0.00 | 0.00 | 0.00 | 71 | 1015.2 |
| 20260904123024 | 72 | 169 | 2.0 | 6.0 | 0.00 | 0.00 | 0.00 | 70 | 1015.1 |
| 20260904122925 | 71 | 144 | 2.0 | 4.0 | 0.00 | 0.00 | 0.00 | 70 | 1015.1 |
| 20260904121805 | 72 | 159 | 1.0 | 6.0 | 0.00 | 0.00 | 0.00 | 70 | 1014.9 |
| 20260904121304 | 72 | 207 | 4.0 | 6.0 | 0.00 | 0.00 | 0.00 | 70 | 1015.1 |
| 20260904121140 | 72 | 171 | 3.0 | 6.0 | 0.00 | 0.00 | 0.00 | 70 | 1014.9 |
| 20260904120658 | 72 | 196 | 3.0 | 9.0 | 0.00 | 0.00 | 0.00 | 70 | 1014.8 |
| 20260904120139 | 72 | 196 | 3.0 | 9.0 | 0.00 | 0.00 | 0.00 | 70 | 1014.8 |
| 20260904115306 | 72 | 165 | 2.0 | 7.0 | 0.00 | 0.00 | 0.00 | 70 | 1014.9 |
| 20260904114806 | 72 | 228 | 3.0 | 6.0 | 0.00 | 0.00 | 0.00 | 70 | 1014.8 |
| 20260904114641 | 72 | 124 | 2.0 | 5.0 | 0.00 | 0.00 | 0.00 | 70 | 1015.1 |
| 20260904114153 | 72 | 173 | 3.0 | 6.0 | 0.00 | 0.00 | 0.00 | 71 | 1014.9 |
| 20260904113304 | 72 | 204 | 3.0 | 6.0 | 0.00 | 0.00 | 0.00 | 71 | 1014.9 |
| 20260904112806 | 72 | 180 | 4.0 | 7.0 | 0.00 | 0.00 | 0.00 | 71 | 1014.9 |
| 20260904112306 | 72 | 173 | 3.0 | 7.0 | 0.00 | 0.00 | 0.00 | 71 | 1014.8 |
| 20260904111806 | 72 | 176 | 2.0 | 4.0 | 0.00 | 0.00 | 0.00 | 71 | 1014.7 |
| 20260904111644 | 72 | 178 | 2.0 | 5.0 | 0.00 | 0.00 | 0.00 | 70 | 1014.7 |
| 20260904110805 | 73 | 185 | 1.0 | 5.0 | 0.00 | 0.00 | 0.00 | 70 | 1014.6 |
| 20260904110305 | 73 | 147 | 1.0 | 5.0 | 0.00 | 0.00 | 0.00 | 70 | 1014.5 |
| 20260904105804 | 73 | 147 | 3.0 | 5.0 | 0.00 | 0.00 | 0.00 | 70 | 1014.5 |
| 20260904105306 | 72 | 158 | 2.0 | 5.0 | 0.00 | 0.00 | 0.00 | 70 | 1014.5 |
| 20260904104805 | 72 | 144 | 3.0 | 6.0 | 0.00 | 0.00 | 0.00 | 70 | 1014.6 |
| 20260904104305 | 72 | 141 | 2.0 | 6.0 | 0.00 | 0.00 | 0.00 | 70 | 1014.5 |
| 20260904103804 | 73 | 131 | 2.0 | 6.0 | 0.00 | 0.00 | 0.00 | 70 | 1014.5 |
| 20260904103305 | 73 | 135 | 3.0 | 6.0 | 0.00 | 0.00 | 0.00 | 70 | 1014.5 |
| 20260904102804 | 72 | 87 | 2.0 | 5.0 | 0.00 | 0.00 | 0.00 | 70 | 1014.5 |
| 20260904102306 | 72 | 154 | 2.0 | 5.0 | 0.00 | 0.00 | 0.00 | 70 | 1014.5 |
| 20260904101805 | 72 | 118 | 3.0 | 6.0 | 0.00 | 0.00 | 0.00 | 70 | 1014.4 |
| 20260904101531 | 72 | 137 | 3.0 | 6.0 | 0.00 | 0.00 | 0.00 | 70 | 1014.3 |
| 20260904100805 | 72 | 118 | 3.0 | 6.0 | 0.00 | 0.00 | 0.00 | 71 | 1014.4 |
| 20260904100640 | 72 | 155 | 2.0 | 6.0 | 0.00 | 0.00 | 0.00 | 70 | 1014.2 |